Orbital Elements at Epoch 2459200.5 (2020-Dec-17.0) TDB
Reference: JPL 27 (heliocentric ecliptic J2000)
Element | Value | Uncertainty (1-sigma) | Units |
e | .2291336865399741 | 6.4497e-08 | |
a | 2.459749261246553 | 1.4592e-08 | au |
q | 1.896137845053153 | 1.5941e-07 | au |
i | 14.90638915422299 | 6.7589e-06 | deg |
node | 353.0922585683963 | 1.2681e-05 | deg |
peri | 7.50193631491273 | 1.6886e-05 | deg |
M | 110.3961390195525 | 7.9871e-06 | deg |
tp | 2458768.398206403027 (2019-Oct-11.89820640) | 3.2273e-05 | TDB |
period | 1409.076866966872 3.86 | 1.2539e-05 3.433e-08 | d yr |
n | .2554864169865501 | 2.2734e-09 | deg/d |
Q | 3.023360677439954 | 1.7935e-08 | au |
|
| | Orbit Determination Parameters
Additional Information
|